Regional Weather Roundup
Issued by NWS

Home | Current Version | Previous Version | Text Only | Print | Product List | Glossary Off
Versions: 1 2 3 4 5 6 7 8 9 10 11 12 13 14 15 16 17 18 19 20 21 22 23 24 25 26 27 28 29 30 31 32 33 34 35 36 37 38 39 40 41 42 43 44 45 46 47 48 49 50

000
ASUS45 KABQ 220310
RWRNM
WEATHER ROUNDUP FOR NEW MEXICO
NATIONAL WEATHER SERVICE ALBUQUERQUE NM
900 PM MDT SUN SEP 21 2014

NOTE: "FAIR" MEANS FEW OR NO CLOUDS BELOW 12,000 FEET AGL WITH NO
       SIGNIFICANT WEATHER OR OBSTRUCTIONS TO VISION.

      THIS PRODUCT IS RELEASED AS TWO VERSIONS.  ONE VERSION NEAR
      THE TOP OF THE HOUR CONTAINING PRELIMINARY DATA FROM ALBUQUERQUE
      AND OTHER STATIONS.  A FINAL VERSION WITH ADDITIONAL DATA IS
      ISSUED ABOUT 10 MINUTES AFTER THE HOUR.

NMZ501-503-504-510>518-220400-
NORTHWEST PLATEAU/NORTHCENTRAL MOUNTAINS

CITY           SKY/WX    TMP DP  RH WIND       PRES   REMARKS
FARMINGTON     PTCLDY    70  50  49 S9G26     30.21R
LOS ALAMOS     MOCLDY    64  52  64 S9G18     30.42R
SANTA FE       MOCLDY    66  54  65 SE16      30.36R
TAOS           MOCLDY    64  46  52 SE20      30.40R
ANGEL FIRE     MOCLDY    56  46  70 SW6       30.52R

$$
NMZ402-403-502-505>509-220400-
WESTCENTRAL MOUNTAINS/SOUTHWEST MOUNTAINS

CITY           SKY/WX    TMP DP  RH WIND       PRES   REMARKS
GALLUP         MOCLDY    61  58  90 CALM      30.30R
GRANTS         PTCLDY    59  55  88 S8        30.35S
SILVER CITY    CLOUDY    70  59  68 NE8       30.25R

$$
NMZ407-409-411-412-220400-
SOUTHERN DESERTS

CITY           SKY/WX    TMP DP  RH WIND       PRES   REMARKS
LORDSBURG      FAIR      73  64  73 MISG      30.14R
DEMING         CLOUDY    76  64  66 E9        30.15R
LAS CRUCES     CLOUDY    75  61  60 SE9       30.19R
HOLLOMAN AFB   MOCLDY    74  62  66 CALM      30.15R
ALAMOGORDO     MOCLDY    75  57  53 NE5       30.17R
T OR C         MOCLDY    72  60  66 N12       30.21R

$$
NMZ519>523-220400-
CENTRAL VALLEYS/CENTRAL HIGHLANDS

CITY           SKY/WX    TMP DP  RH WIND       PRES   REMARKS
ALBUQUERQUE    MOCLDY    71  54  54 E14       30.27R
DOUBLE EAGLE   PTCLDY    66  54  63 SE8       30.31R
MORIARTY ARPT  FAIR      62  56  83 S3        30.38R
CLINES CORNERS PTCLDY    59  56  89 E8        30.40R
BELEN          FAIR      71  56  58 SE12      30.26R
SOCORRO        FAIR      70  58  65 E6        30.27R

$$
NMZ524>526-539-540-220400-
SOUTHCENTRAL MOUNTAINS

CITY           SKY/WX    TMP DP  RH WIND       PRES   REMARKS
RUIDOSO        CLOUDY    57  57 100 SE7       30.43R

$$
NMZ527>531-220400-
NORTHEAST HIGHLANDS/NORTHEAST PLAINS

CITY           SKY/WX    TMP DP  RH WIND       PRES   REMARKS
LAS VEGAS      CLOUDY    61  56  83 S6        30.44R
RATON          LGT RAIN  59  57  93 N7        30.41R
CLAYTON        PTCLDY    63  56  78 SE8       30.37R

$$
NMZ532>537-220400-
EASTCENTRAL PLAINS

CITY           SKY/WX    TMP DP  RH WIND       PRES   REMARKS
TUCUMCARI      RAIN      66  63  90 S8        30.29R
CANNON AFB       N/A    N/A N/A N/A E7          N/A
CLOVIS AIRPORT   N/A     66  61  82 E5        30.33F

$$
NMZ028-029-538-220400-
SOUTHEAST PLAINS

CITY           SKY/WX    TMP DP  RH WIND       PRES   REMARKS
ROSWELL        CLOUDY    68  65  90 CALM      30.25R
CARLSBAD       LGT RAIN  68 N/A N/A NE5       30.20R
HOBBS          CLOUDY    68  68 100 E7        30.26R


$$



USA.gov is the U.S. government's official web portal to all federal, state and local government web resources and services.